EIN100 EINN-EGLF

Flight info

Callsign EIN100
Flight time N/A
Altitude 35000
Route ABAGU3A ABAGU DCT ENJEX DCT AVZAC DCT ICOSA DCT RUHUN DCT HAWFA/N0422F230 L607 NUCHU P73 REFQI CPT1V GOBNU DCT CPT
Aircraft A319/M-SDE3FGHIRWY/LB1

Departure

Time 2026-05-01 14:08
Airport Shannon Airport (EINN)

Arrival

Time N/A
Airport Farnborough Airport (EGLF)
Time Latitude Longitude Altitude Speed Heading
2026-05-01 13:40 52.69367 -8.92068 22 ft 0 kts 191°
2026-05-01 13:57 52.69369 -8.92067 21 ft 3 kts 191°
2026-05-01 13:57 52.69396 -8.92059 21 ft 4 kts 191°
2026-05-01 13:58 52.69422 -8.92049 21 ft 4 kts 195°
2026-05-01 13:58 52.69447 -8.92035 23 ft 4 kts 215°
2026-05-01 13:58 52.69459 -8.92011 22 ft 2 kts 282°
2026-05-01 13:58 52.69459 -8.92009 22 ft 0 kts 283°
2026-05-01 14:00 52.69460 -8.92014 21 ft 2 kts 283°
2026-05-01 14:01 52.69465 -8.92049 21 ft 5 kts 283°
2026-05-01 14:01 52.69474 -8.92120 23 ft 8 kts 283°
2026-05-01 14:01 52.69493 -8.92221 21 ft 11 kts 293°
2026-05-01 14:01 52.69534 -8.92344 24 ft 14 kts 303°
2026-05-01 14:02 52.69606 -8.92471 22 ft 16 kts 315°
2026-05-01 14:02 52.69687 -8.92601 22 ft 17 kts 315°
2026-05-01 14:02 52.69768 -8.92732 22 ft 16 kts 315°
2026-05-01 14:02 52.69837 -8.92845 22 ft 12 kts 315°
2026-05-01 14:03 52.69871 -8.92900 22 ft 0 kts 316°
2026-05-01 14:03 52.69871 -8.92901 22 ft 1 kts 316°
2026-05-01 14:04 52.69884 -8.92921 23 ft 5 kts 316°
2026-05-01 14:04 52.69914 -8.92974 23 ft 8 kts 308°
2026-05-01 14:04 52.69915 -8.93075 26 ft 11 kts 240°
2026-05-01 14:04 52.69881 -8.93149 24 ft 14 kts 233°
2026-05-01 14:05 52.69757 -8.93412 25 ft 29 kts 232°
2026-05-01 14:05 52.69611 -8.93721 27 ft 39 kts 232°
2026-05-01 14:05 52.69448 -8.94070 32 ft 36 kts 232°
2026-05-01 14:05 52.69341 -8.94222 34 ft 12 kts 201°
2026-05-01 14:06 52.69289 -8.94290 33 ft 7 kts 268°
2026-05-01 14:06 52.69318 -8.94341 34 ft 6 kts 343°
2026-05-01 14:06 52.69354 -8.94316 35 ft 6 kts 45°
2026-05-01 14:06 52.69373 -8.94253 32 ft 6 kts 77°
2026-05-01 14:07 52.69393 -8.94193 33 ft 0 kts 47°
2026-05-01 14:07 52.69394 -8.94192 33 ft 4 kts 47°
2026-05-01 14:07 52.69594 -8.93765 27 ft 87 kts 52°
2026-05-01 14:08 52.70807 -8.91152 324 ft 173 kts 56°
2026-05-01 14:08 52.71502 -8.89541 984 ft 172 kts 69°
2026-05-01 14:08 52.71524 -8.87673 1549 ft 164 kts 116°
2026-05-01 14:08 52.71116 -8.85865 2039 ft 178 kts 112°
2026-05-01 14:09 52.70736 -8.83789 2361 ft 202 kts 110°
2026-05-01 14:09 52.70329 -8.81413 2744 ft 227 kts 109°
2026-05-01 14:09 52.69886 -8.78769 3249 ft 251 kts 109°
2026-05-01 14:09 52.69415 -8.75926 4065 ft 261 kts 108°
2026-05-01 14:10 52.68938 -8.73013 5034 ft 266 kts 108°
2026-05-01 14:10 52.68451 -8.70045 5991 ft 270 kts 108°
2026-05-01 14:10 52.67955 -8.67046 6918 ft 275 kts 109°
2026-05-01 14:10 52.67448 -8.63997 7846 ft 279 kts 109°
2026-05-01 14:11 52.66930 -8.60896 8774 ft 282 kts 109°
2026-05-01 14:11 52.65875 -8.54610 10452 ft 296 kts 109°
2026-05-01 14:11 52.65296 -8.51211 10756 ft 320 kts 110°
2026-05-01 14:12 52.64668 -8.47549 11018 ft 344 kts 110°
2026-05-01 14:12 52.64006 -8.43679 11528 ft 356 kts 110°
2026-05-01 14:12 52.63339 -8.39728 12251 ft 361 kts 110°
2026-05-01 14:12 52.62665 -8.35723 13009 ft 364 kts 110°
2026-05-01 14:13 52.61985 -8.31686 13776 ft 368 kts 111°
2026-05-01 14:13 52.61529 -8.29002 14231 ft 370 kts 111°
2026-05-01 14:13 52.60593 -8.23523 15127 ft 374 kts 111°
2026-05-01 14:13 52.59883 -8.19386 15802 ft 377 kts 111°
2026-05-01 14:14 52.59164 -8.15219 16477 ft 380 kts 111°
2026-05-01 14:14 52.58439 -8.11021 17160 ft 383 kts 111°
2026-05-01 14:14 52.57708 -8.06784 17815 ft 387 kts 111°
2026-05-01 14:14 52.56969 -8.02518 18463 ft 390 kts 111°
2026-05-01 14:15 52.56230 -7.98277 18986 ft 393 kts 112°
2026-05-01 14:15 52.55475 -7.93949 19555 ft 395 kts 112°
2026-05-01 14:15 52.54713 -7.89588 20110 ft 398 kts 112°
2026-05-01 14:15 52.53947 -7.85210 20655 ft 400 kts 112°
2026-05-01 14:16 52.53174 -7.80803 21185 ft 403 kts 112°
2026-05-01 14:16 52.52396 -7.76370 21711 ft 405 kts 112°
2026-05-01 14:16 52.51609 -7.71911 22232 ft 407 kts 112°
2026-05-01 14:16 52.50817 -7.67427 22717 ft 411 kts 112°
2026-05-01 14:17 52.49889 -7.63001 23194 ft 408 kts 119°
2026-05-01 14:17 52.48742 -7.58732 23687 ft 410 kts 120°
2026-05-01 14:17 52.47577 -7.54433 24120 ft 412 kts 120°
2026-05-01 14:17 52.46421 -7.50179 24538 ft 414 kts 120°
2026-05-01 14:18 52.45234 -7.45810 24936 ft 415 kts 120°
2026-05-01 14:18 52.44073 -7.41538 25329 ft 417 kts 120°
2026-05-01 14:18 52.42891 -7.37192 25745 ft 418 kts 120°
2026-05-01 14:18 52.42096 -7.34269 26017 ft 419 kts 120°
2026-05-01 14:19 52.40515 -7.28473 26547 ft 421 kts 120°
2026-05-01 14:19 52.39313 -7.24088 26939 ft 423 kts 120°
2026-05-01 14:19 52.38104 -7.19687 27312 ft 424 kts 120°
2026-05-01 14:19 52.36893 -7.15276 27675 ft 425 kts 120°
2026-05-01 14:20 52.35676 -7.10858 28044 ft 427 kts 120°
2026-05-01 14:20 52.33229 -7.01986 28735 ft 429 kts 120°
2026-05-01 14:20 52.32000 -6.97532 29064 ft 431 kts 120°
2026-05-01 14:21 52.30761 -6.93063 29381 ft 431 kts 120°
2026-05-01 14:21 52.29521 -6.88603 29748 ft 432 kts 121°
2026-05-01 14:21 52.28279 -6.84146 30162 ft 431 kts 121°
2026-05-01 14:22 52.25795 -6.75258 30931 ft 429 kts 121°
2026-05-01 14:22 52.24975 -6.72333 31178 ft 428 kts 121°
2026-05-01 14:22 52.23324 -6.66437 31667 ft 427 kts 121°
2026-05-01 14:22 52.22506 -6.63520 31921 ft 426 kts 121°
2026-05-01 14:23 52.21274 -6.59135 32302 ft 425 kts 121°
2026-05-01 14:23 52.20038 -6.54748 32685 ft 425 kts 121°
2026-05-01 14:23 52.18807 -6.50385 33074 ft 424 kts 121°
2026-05-01 14:23 52.17574 -6.46033 33441 ft 423 kts 121°
2026-05-01 14:24 52.16340 -6.41684 33821 ft 422 kts 121°
2026-05-01 14:24 52.15107 -6.37347 34146 ft 422 kts 121°
2026-05-01 14:24 52.13872 -6.33016 34454 ft 421 kts 121°
2026-05-01 14:24 52.12637 -6.28693 34729 ft 422 kts 121°
2026-05-01 14:25 52.11392 -6.24347 34978 ft 423 kts 121°
2026-05-01 14:25 52.10142 -6.20000 35133 ft 425 kts 121°
2026-05-01 14:25 52.07633 -6.11263 35167 ft 427 kts 121°
2026-05-01 14:26 52.03878 -5.98128 35168 ft 427 kts 120°
2026-05-01 14:27 52.01436 -5.89391 35180 ft 427 kts 120°
2026-05-01 14:27 51.99376 -5.82024 35176 ft 429 kts 120°